www.pogodaiklimat.ru

Погода и климат >> Архив погоды >> Кипр >> Ларнака


АРХИВ ПОГОДЫ в Ларнаке

Время (UTC), дата Ветер
(напр.,м/с)
 
Видим.   Явления Облачность Т
(С)
Тd
(С)
f
(%)
Тe
(С)
Тes
(С)
Комфортность P
(гПа)
Po
(гПа)
Тmin
(С)
Tmax
(С)
R
(мм)
R24
(мм)
S
(см)
09 13.09 Ю 6 20 км 1/1 750 м
[Cu hum]
+31.7 +22.4 58 +41 +47 опасность
перегрева
1009.5 1009.2
12 13.09 ЮЗ 8 25 км 3/3 750 м
[Cb calv]
+31.9 +21.7 55 +40 +42 очень
душно
1008.3 1008.0
15 13.09 Ю 4 18 км 1/1 900 м
[Cu Sc Ac trans]
+30.5 +21.3 58 +38 +39 очень
душно
1007.8 1007.5
18 13.09 ЮЗ 4 18 км 1/1 900 м
[Cu hum]
+27.5 +22.4 74 +36 +36 очень
душно
1008.5 1008.2 +27.5 +33.0
21 13.09 ЮЗ 3 12 км 1/1 900 м
[Cu hum]
+25.2 +21.7 81 +32 +32 очень
душно
1008.0 1007.7
00 14.09 СЗ 1 12 км ясно +22.2 +19.6 85 +28 +28 душно 1007.4 1007.1
03 14.09 З 2 12 км 1/1 900 м
[Sc]
+23.1 +20.6 86 +30 +30 очень
душно
1007.5 1007.2
06 14.09 ЮЗ 3 10 км 8/8 360 м
[Sc]
+28.2 +22.0 69 +36 +37 очень
душно
1008.3 1008.0 +22.1 +28.2
12 14.09 Ю 7 15 км 3/3 750 м
[Cu med, cong]
+31.5 +20.4 52 +38 +40 очень
душно
1007.0 1006.7
15 14.09 ЮЗ 7 15 км 1/1 750 м
[Cb cap]
+28.7 +21.0 63 +36 +36 очень
душно
1006.7 1006.4
18 14.09 ЮЗ 5 15 км 1/1 750 м
[Cu Sc Ac trans]
+26.7 +21.0 71 +34 +34 очень
душно
1008.1 1007.8 +26.7 +31.6
21 14.09 СЗ 2 12 км ясно +24.4 +20.7 80 +30 +30 очень
душно
1008.0 1007.7
00 15.09 З 1 12 км 1/1 600 м
[Cu hum]
+23.2 +20.2 83 +30 +30 очень
душно
1007.2 1006.9
03 15.09 СЗ 2 15 км 1/1 600 м
[Cb cap]
+21.4 +18.2 82 +26 +26 душно 1007.3 1007.0
06 15.09 Ю 2 15 км 3/3 600 м
[Cb cap Ac trans]
+27.3 +19.6 63 +33 +37 очень
душно
1008.4 1008.1 +21.1 +27.3
09 15.09 Ю 6 17 км гроза без осадков 4/4 600 м
[Cb cap Ci ing]
+30.3 +20.8 57 +38 +41 очень
душно
1008.2 1007.9
12 15.09 СЗ 4
{20}
12 км в посл. час гроза 8/4 750 м
[Cb cap Ac cuf Ci ing]
+24.0 +21.1 84 +30 +33 очень
душно
1008.7 1008.4 10
15 15.09 ЮВ 1 18 км 3/3 750 м
[Cu Sc]
+28.0 +19.8 61 +34 +35 очень
душно
1008.6 1008.3
18 15.09 З 2 20 км ясно +24.2 +19.7 76 +29 +29 душно 1009.3 1009.0 +21.3 +30.8 10
00 16.09 СЗ 2 25 км 1/1 1350 м
[Sc]
+22.0 +18.2 79 +27 +27 душно 1008.8 1008.5
03 16.09 З 1 25 км 1/1 1200 м
[Sc]
+21.0 +17.0 78 +26 +26 душно 1009.2 1008.9
06 16.09 ЮВ 1 30 км ясно +28.3 +18.7 56 +33 +39 очень
душно
1010.4 1010.1 +21.0 +28.3
09 16.09 Ю 5 30 км 1/1 750 м
[Cu med, cong]
+30.3 +18.7 50 +35 +43 очень
душно
1011.0 1010.7
12 16.09 Ю 7 17 км 5/5 600 м
[Cb cap]
+31.0 +23.1 63 +41 +43 опасность
перегрева
1010.5 1010.2
15 16.09 ЮЗ 6 17 км 4/3 600 м
[Cu Sc Ac cast]
+29.3 +22.3 66 +38 +38 очень
душно
1010.5 1010.2
18 16.09 З 2 20 км ясно +25.1 +19.5 71 +30 +30 душно 1011.8 1011.5 +25.1 +31.2
21 16.09 З 2 20 км ясно +22.9 +18.0 74 +28 +28 душно 1012.5 1012.2
00 17.09 СЗ 3 20 км ясно +21.7 +14.8 65 +25 +25 комфорт 1011.9 1011.6
03 17.09 СЗ 3 20 км ясно +20.1 +14.2 69 +23 +23 комфорт 1012.6 1012.2
06 17.09 С 1 30 км ясно +27.2 +18.5 59 +32 +38 очень
душно
1013.8 1013.5 +19.5 +27.2
12 17.09 ЮЗ 6 30 км 1/1 900 м
[Cu med, cong]
+30.7 +21.2 57 +38 +42 очень
душно
1012.8 1012.5
18 17.09 ЮЗ 2 30 км ясно +25.3 +22.0 82 +33 +33 очень
душно
1014.0 1013.7 +25.3 +31.0
21 17.09 СЗ 3 20 км ясно +23.8 +19.5 77 +29 +29 душно 1013.9 1013.6
00 18.09 СЗ 3 20 км ясно +22.8 +19.6 82 +29 +29 очень
душно
1013.6 1013.3
03 18.09 З 2 20 км 1/1 600 м
[Sc]
+21.1 +18.9 87 +25 +25 комфорт 1014.3 1013.9
06 18.09 СЗ 2 40 км ясно +28.0 +19.5 60 +34 +39 очень
душно
1015.2 1014.9 +21.0 +28.0
09 18.09 ЮВ 4 40 км ясно +30.8 +18.8 49 +36 +47 очень
душно
1015.1 1014.8
12 18.09 Ю 4 40 км 1/1 900 м
[Cu hum]
+32.1 +18.3 44 +37 +44 очень
душно
1013.7 1013.4
15 18.09 ЮЗ 4 35 км 1/1 900 м
[Cu hum]
+30.0 +20.8 58 +37 +38 очень
душно
1013.5 1013.2
18 18.09 СЗ 4 30 км 1/1 1200 м
[Sc]
+27.1 +19.7 64 +33 +33 очень
душно
1013.9 1013.6 +26.6 +32.6
21 18.09 СЗ 4 20 км ясно +24.5 +18.9 71 +29 +29 душно 1013.6 1013.3
00 19.09 СЗ 3 20 км ясно +23.0 +18.5 76 +29 +29 очень
душно
1012.9 1012.6
03 19.09 З 2 30 км 1/1 600 м
[Cu hum]
+22.0 +13.2 57 +25 +25 комфорт 1013.2 1012.9
06 19.09 ЮЗ 3 35 км 1/1 450 м
[Sc]
+29.6 +19.6 55 +36 +39 очень
душно
1013.7 1013.4 +21.0 +29.6
09 19.09 Ю 5 35 км ясно +32.7 +19.6 46 +38 +46 очень
душно
1013.4 1013.1
12 19.09 ЮЗ 8 35 км ясно +33.3 +18.3 41 +38 +40 очень
душно
1012.0 1011.7
15 19.09 ЮЗ 6 30 км ясно +31.5 +17.8 44 +36 +36 очень
душно
1011.6 1011.3
18 19.09 СЗ 3 30 км ясно +26.8 +19.4 64 +32 +32 очень
душно
1012.3 1012.0 +26.8 +33.9
21 19.09 СЗ 4 20 км ясно +24.7 +20.2 76 +30 +30 очень
душно
1012.0 1011.7
00 20.09 СЗ 3 20 км ясно +22.6 +15.7 65 +27 +27 душно 1011.4 1011.1
03 20.09 З 3 20 км ясно +20.8 +9.7 49 +23 +23 комфорт 1011.4 1011.0
06 20.09 З 2 25 км ясно +29.4 +20.0 57 +36 +41 очень
душно
1011.8 1011.5 +20.8 +29.4

 

Местоположение метеостанции Ларнака (Кипр): широта 34.88 долгота 33.63 высота над уровнем моря 2 м.

В архиве по умолчанию представлена погода в Ларнаке за последнюю неделю. Архивные данные за месяц целиком и за предыдущие месяцы, начиная с января 2011 года, Вы можете получить, выбрав интересующий диапазон дат из раскрывающегося списка и нажав кнопку "Ввод!".


*Определитесь, кто Вы:
робот инопланетянин человек

Внимание! Время в таблицах - всемирное. Для получения местного времени необходимо прибавить поправку, которая равна 2 ч.

Смотрите также архив погоды в соседних городах и на ближайших метеорологических станциях:

Погода в Никосии (Кипр) (32 км)
Погода в Unknown (Кипр) (36 км)
Погода в Аталассе (Кипр) (37 км)
Погода на Базе ВВС Gecitkale (Кипр) (40 км)
Погода в Фамагусте (Кипр) (40 км)
Погода в Лефконико (Кипр) (42 км)
Погода в Искеле (Кипр) (50 км)
Погода в Киринии (Кипр) (59 км)
Погода на Акротири (Кипр) (68 км)
Погода в Акденизе (Кипр) (76 км)

Пояснения к столбцам:

Ветер - указаны скорость ветра в м/с - средняя за 10 мин, порывы в срок и между сроками (в фигурных скобках) и направление, откуда дует ветер: С - северный, СВ - северо-восточный, В - восточный, ЮВ - юго-восточный, Ю - южный, ЮЗ - юго-западный, З - западный, СЗ - северо-западный.
Видимость - горизонтальная дальность видимости в метрах или километрах. При видимости от 1 до 10 км при отсутствии осадков обычно наблюдается дымка, при ухудшении видимости до 1 км и менее - туман. В сухую погоду видимость может ухудшаться дымом, пылью или мглою.
Явления - указаны атмосферные явления, наблюдавшиеся в срок или в последний час перед сроком; фигурными скобками обозначены явления, наблюдавшиеся между сроками (за 1-3 часа до срока); квадратными скобками обозначены град или гололедные отложения с указанием их диаметра в мм.
Облачность - указаны через наклонную черту общая и нижняя облачность в баллах и высота нижней границы облаков в метрах; квадратными скобками обозначены формы облаков: Ci - перистые, Cs - перисто-слоистые, Cc - перисто-кучевые, Ac - высококучевые, As - высокослоистые, Sc - слоисто-кучевые, Ns - слоисто-дождевые, Cu - кучевые, Cb - кучево-дождевые. Подробнее классификацию облаков см. в Атласе облаков (PDF).
T - Температура воздуха - температура, измеренная на высоте 2 м над землей.
Td - Температура точки росы - температура, при понижении до которой содержащийся в воздухе водяной пар достигнет насыщения.
f - Относительная влажность воздуха - влажноcть воздуха, измеренная на высоте 2 м над землей.
Te - Эффективная температура - температура, которую ощущает одетый по сезону человек в тени. Характеристика душности погоды. При расчете учитывается влияние влажности воздуха и скорости ветра на теплоощущения человека.
Tes - Эффективная температура на солнце - температура, которую ощущает человек, с поправкой на солнечный нагрев. Характеристика знойности погоды. Зависит от высоты солнца над горизонтом, облачности и скорости ветра. Ночью, в пасмурную погоду, а также при ветре 12 м/с и более поправка равна нулю.
P - Атмосферное давление - приведенное к уровню моря атмосферное давление.
Po - Атмосферное давление - измеренное на уровне метеостанции атмосферное давление.
Tmin - Минимальная температура - минимум температуры воздуха на высоте 2 м над землей.
Tmax - Максимальная температура - максимум температуры воздуха на высоте 2 м над землей.
R - Количество осадков - Количество выпавших осадков за период времени, мм. При наведении курсора мыши на число - период времени, за который выпало указанное количество осадков.
R24 - Количество осадков - Количество выпавших осадков за 24 часа, мм.
S - Снежный покров - Высота снежного покрова, см. При наведении курсора мыши на число - состояние снежного покрова и степень покрытия местности в баллах.